Las Vegas, Nevada (DRI) Weather observations

Data are for observation ending at time listed.
 Day   Time    Ave.   Ave.  Ave.  Vector   Max.   Stn.    Total    Solar   Ave.  
  of    of     Air    Rel.  Wind   Wind    Wind   Baro.  Precip.   Rad.    Soil  
Year   Day     Temp.  Hum.  Speed  Dir.    Gust   Pres.                    Temp. 
2026   (PST)    F      %     mph   deg.    mph     mb.     in.     W/m2     F   
------------------------------------------------------------------------------
 243   14:20  100.0    17    5.6   176     15.6   937.6    0.00     549    106.9
 243   14:30  100.9    17    6.3   180     11.6   937.4    0.00     587    107.0
 243   14:40   98.9    18    6.2   201     14.3   937.4    0.00     240    107.0
 243   14:50   97.9    18    5.5   194     15.2   937.3    0.00     186    107.0
 243   15:00   99.2    16    9.0   179     16.6   937.1    0.00     493    106.9
 243   15:10   99.7    16    7.4   182     17.0   937.1    0.00     611    106.5
 243   15:20  100.6    15    6.6   174     12.7   937.0    0.00     625    106.3
 243   15:30  101.0    15    5.3   188     11.9   937.0    0.00     606    106.1
 243   15:40  101.1    15    5.9   184     12.9   936.9    0.00     555    105.9
 243   15:50  100.7    15    8.0   182     15.5   936.9    0.00     476    105.7
 243   16:00  100.2    15    5.7   192     11.6   937.0    0.00     426    105.5
 243   16:10  100.9    14    5.1   193     10.8   937.0    0.00     383    105.3
 243   16:20  100.0    15    6.8   190     15.2   936.8    0.00     351    105.2
 243   16:30   99.6    15    5.3   196     12.2   936.8    0.00     314    105.0
 243   16:40   98.9    15    7.2   201     15.1   936.9    0.00     277    104.7
 243   16:50   99.3    15    4.2   199     11.0   936.9    0.00     241    104.5
 243   17:00   98.3    16    7.6   194     15.8   937.0    0.00     209    104.3
 243   17:10   98.2    16    4.4   189     12.3   937.0    0.00     176    103.9
 243   17:20   98.2    16    5.3   184     12.9   937.1    0.00     144    103.7
 243   17:30   97.7    16    3.9   193     10.2   937.0    0.00     115    103.5
 243   17:40   96.6    17    4.4   195     11.1   937.0    0.00      58    103.2
 243   17:50   96.2    17    4.4   210     12.4   937.1    0.00      18    103.0
 243   18:00   95.8    17    3.9   196      9.9   937.2    0.00      12    102.7
 243   18:10   95.5    17    4.4   194      9.9   937.4    0.00       6    102.4
 243   18:20   95.4    17    3.7   194      9.4   937.5    0.00       2    102.2
 243   18:30   95.3    17    4.1   201      9.6   937.5    0.00       1    101.9
 243   18:40   95.0    17    3.6   183      5.8   937.7    0.00       0    101.6
 243   18:50   94.8    17    3.4   189      6.9   937.7    0.00       0    101.3
 243   19:00   94.7    17    4.2   170      9.8   937.8    0.00       0    101.0
 243   19:10   93.4    29    5.5   172     14.6   938.0    0.00       0    100.8
 243   19:20   92.0    34    5.1   175     14.0   938.0    0.00       0    100.5
 243   19:30   91.7    34    6.3   176     14.8   938.2    0.00       0    100.4
 243   19:40   91.3    35    6.5   171     17.5   938.3    0.00       0    100.2
 243   19:50   90.8    36    7.6   174     15.0   938.5    0.00       0    100.0
 243   20:00   90.8    34    6.1   177     15.3   938.6    0.00       0    99.8
 243   20:10   90.6    33    8.5   171     17.7   938.6    0.00       0    99.5
 243   20:20   90.3    33    7.5   175     19.2   938.8    0.00       0    99.3
 243   20:30   90.2    32    7.4   176     18.6   938.8    0.00       0    99.0
 243   20:40   90.2    31    7.0   175     13.2   939.0    0.00       0    98.9
 243   20:50   90.0    31    6.0   173     17.5   939.1    0.00       0    98.7
 243   21:00   89.8    31    8.1   173     16.1   939.1    0.00       0    98.4
 243   21:10   89.5    32    5.9   179     12.6   939.2    0.00       0    98.2
 243   21:20   89.4    31    7.9   177     14.7   939.2    0.00       0    98.0
 243   21:30   89.2    31    7.5   175     12.1   939.3    0.00       0    97.9
 243   21:40   89.4    26    8.9   172     15.2   939.4    0.00       0    97.7
 243   21:50   89.6    22    7.1   179     15.3   939.5    0.00       0    97.4
 243   22:00   89.4    20    5.6   188     13.4   939.7    0.00       0    97.3
 243   22:10   89.3    18    5.6   185     10.4   939.8    0.00       0    97.1
 243   22:20   89.1    16    5.4   189      8.8   939.9    0.00       0    96.9
 243   22:30   88.8    15    5.8   181     10.8   939.9    0.00       0    96.7
 243   22:40   88.5    15    4.6   181     11.1   940.0    0.00       0    96.5
 243   22:50   87.8    16    5.0   170     10.2   940.1    0.00       0    96.4
 243   23:00   87.7    15    4.4   185      8.6   940.2    0.00       0    96.2
 243   23:10   87.5    15    4.8   187     11.3   940.3    0.00       0    96.0
 243   23:20   87.3    16    4.7   185      9.6   940.3    0.00       0    95.8
 243   23:30   87.0    16    4.8   180      9.9   940.3    0.00       0    95.7
 243   23:40   86.7    16    4.1   185      7.8   940.4    0.00       0    95.5
 243   23:50   86.3    17    3.2   178      6.6   940.6    0.00       0    95.4
 244    0:00   85.9    16    4.2   177      7.3   940.6    0.00       0    95.3
 244    0:10   85.8    17    4.9   178     11.7   940.7    0.00       0    95.1
 244    0:20   85.5    18    2.3   178      6.4   940.7    0.00       0    95.0
 244    0:30   84.5    20    1.6   166      4.9   940.6    0.00       0    94.8
 244    0:40   84.1    21    1.3   163      3.8   940.6    0.00       0    94.7
 244    0:50   83.8    22    2.7   174      6.5   940.8    0.00       0    94.6
 244    1:00   83.9    22    3.3   179      7.7   940.9    0.00       0    94.5
 244    1:10   83.7    22    3.5   176      7.7   940.8    0.00       0    94.3
 244    1:20   83.6    22    4.5   175      8.3   940.8    0.00       0    94.2
 244    1:30   83.5    22    4.2   174      7.8   940.8    0.00       0    94.0
 244    1:40   83.1    23    4.1   174      7.2   940.9    0.00       0    93.8
 244    1:50   82.7    24    4.2   181      8.3   941.0    0.00       0    93.7
 244    2:00   82.7    23    3.8   176      7.2   941.0    0.00       0    93.5
 244    2:10   82.5    24    2.8   176      6.7   941.1    0.00       0    93.4
 244    2:20   82.2    24    3.0   175      5.7   941.2    0.00       0    93.3
 244    2:30   82.1    23    4.8   176     10.5   941.2    0.00       0    93.1
 244    2:40   82.1    23    5.1   176      9.1   941.3    0.00       0    92.9
 244    2:50   81.9    23    5.0   173      9.2   941.4    0.00       0    92.8
 244    3:00   81.6    23    4.8   174      8.6   941.2    0.00       0    92.6
 244    3:10   81.6    23    4.3   175      7.9   941.2    0.00       0    92.5
 244    3:20   81.6    23    3.5   176     10.6   941.3    0.00       0    92.4
 244    3:30   81.4    23    4.2   179     10.8   941.3    0.00       0    92.2
 244    3:40   81.3    23    3.0   185      6.2   941.3    0.00       0    92.1
 244    3:50   80.9    23    3.0   175      6.2   941.4    0.00       0    92.0
 244    4:00   80.7    23    3.4   175      7.2   941.4    0.00       0    91.9
 244    4:10   80.7    23    4.1   174      8.9   941.5    0.00       0    91.8
 244    4:20   80.6    23    3.7   180      7.6   941.6    0.00       0    91.6
 244    4:30   80.5    22    4.4   181      9.5   941.7    0.00       0    91.5
 244    4:40   80.5    22    4.0   180      9.1   941.6    0.00       0    91.4
 244    4:50   80.0    22    2.8   180      7.5   941.6    0.00       0    91.3
 244    5:00   79.7    22    2.4   188      4.3   941.7    0.00       0    91.2
 244    5:10   79.6    22    2.7   198      6.9   941.8    0.00       1    91.0
 244    5:20   79.9    21    3.3   203      6.3   941.7    0.00       4    90.9
 244    5:30   80.3    20    3.2   187      6.3   941.8    0.00       7    90.8
 244    5:40   80.5    19    4.1   174      7.1   941.8    0.00      11    90.6
 244    5:50   80.7    19    3.6   178      7.4   941.8    0.00      13    90.5
 244    6:00   80.7    19    3.0   184      7.3   942.0    0.00      16    90.4
 244    6:10   80.9    20    3.2   188      6.3   942.1    0.00      18    90.3
 244    6:20   80.9    20    4.6   181     13.2   942.1    0.00      20    90.2
 244    6:30   81.1    19    5.2   181     10.6   942.2    0.00      22    90.1
 244    6:40   81.2    19    4.1   176      8.1   942.3    0.00      23    90.0
 244    6:50   81.3    19    4.6   178     10.1   942.2    0.00      22    89.9
 244    7:00   81.0    19    5.2   178      9.9   942.3    0.00      24    89.8
 244    7:10   81.3    18    4.4   179      8.9   942.3    0.00      27    89.7
 244    7:20   81.8    18    4.5   167      8.5   942.3    0.00      28    89.7
 244    7:30   82.8    17    4.4   180     12.3   942.4    0.00      29    89.6
 244    7:40   83.5    17    4.5   172      9.8   942.4    0.00      31    89.5
 244    7:50   84.2    16    4.5   173      8.5   942.4    0.00      33    89.5
 244    8:00   84.5    16    4.6   177      9.5   942.5    0.00      38    89.5
 244    8:10   84.9    16    4.7   174     10.1   942.4    0.00      63    89.5
 244    8:20   85.2    16    5.2   177     10.8   942.4    0.00      56    89.5
 244    8:30   85.5    16    5.1   174     10.8   942.4    0.00      71    89.4
 244    8:40   85.8    16    6.4   175     12.3   942.5    0.00     106    89.4
 244    8:50   86.2    18    5.6   176     11.2   942.4    0.00      90    89.4
 244    9:00   86.8    19    4.5   178     11.7   942.4    0.00     112    89.4
 244    9:10   87.4    20    5.2   173     10.4   942.4    0.00     198    89.5
 244    9:20   88.3    23    6.1   177     14.2   942.4    0.00     562    89.6
 244    9:30   89.0    23    5.7   177     13.4   942.4    0.00     703    89.7
 244    9:40   89.3    24    8.7   178     18.6   942.3    0.00     728    89.8
 244    9:50   89.2    24    8.4   174     16.2   942.3    0.00     750    90.0
 244   10:00   89.8    24    8.4   174     16.7   942.3    0.00     770    90.4
 244   10:10   90.0    23    9.4   175     20.0   942.3    0.00     787    90.8
 244   10:20   90.5    21    8.5   173     15.1   942.3    0.00     801    91.4
 244   10:30   90.7    22    8.4   176     15.6   942.3    0.00     810    92.0
 244   10:40   91.1    22    7.7   181     12.6   942.2    0.00     822    92.7
 244   10:50   91.2    21    8.5   179     17.0   942.0    0.00     834    93.4
 244   11:00   91.6    19    7.6   193     17.3   941.9    0.00     848    94.1
 244   11:10   92.2    20    5.9   184     13.6   941.8    0.00     847    94.8
 244   11:20   92.5    21    5.8   189     15.0   941.7    0.00     854    95.4
 244   11:30   93.0    19    5.9   205     11.6   941.6    0.00     859    96.1
 244   11:40   93.1    17    6.5   187     12.6   941.4    0.00     870    96.8
 244   11:50   93.7    17    5.1   189     11.4   941.3    0.00     869    97.5
 244   12:00   93.7    15    5.8   174     12.2   941.1    0.00     872    98.2
 244   12:10   94.0    14    5.0   208     10.7   941.0    0.00     870    98.9
 244   12:20   94.4    14    7.0   184     15.0   940.9    0.00     870    99.5
 244   12:30   94.6    14    6.8   186     15.3   940.8    0.00     865    100.1
 244   12:40   95.3    14    4.0   183      9.9   940.6    0.00     857    100.7
 244   12:50   95.3    14    7.8   189     14.9   940.4    0.00     848    99999.0
 244   13:00   95.6    13    6.7   191     15.1   940.2    0.00     839    101.8
 244   13:10   95.9    13    5.8   203     10.2   940.1    0.00     827    102.3
 244   13:20   95.8    13    4.8   212     10.7   940.0    0.00     814    102.8
 244   13:30   96.4    13    4.4   186     12.9   939.8    0.00     799    103.3
 244   13:40   96.7    13    6.1   181     13.7   939.7    0.00     786    103.8
 244   13:50   96.1    12    5.4   209     13.2   939.6    0.00     768    104.3
 244   14:00   96.6    12    5.1   198      9.6   939.5    0.00     749    104.7
 244   14:10   95.8    12    6.9   188     12.3   939.4    0.00     731    105.0

Return to Las Vegas, Nevada graphs page.


Western Regional Climate Center,wrcc@dri.edu